DW5656 Weather Reports


time (UTC)temp
F
wind
direction
speed
knots
gust
knots
rain 1hr
in
rain 24hr
in
rain mn
in
humidity
%
barometer
mb
20260904161523 104 262 1.7 5.2 0.00 0.00 0.00 41 1015.9
20260904160623 103 264 1.7 6.1 0.00 0.00 0.00 38 1016.0
20260904155744 102 276 2.6 7.0 0.00 0.00 0.00 39 1016.0
20260904154823 103 302 1.7 4.3 0.00 0.00 0.00 39 1016.2
20260904153944 102 310 1.7 6.1 0.00 0.00 0.00 39 1016.2
20260904153023 102 275 1.7 5.2 0.00 0.00 0.00 40 1016.3
20260904152122 102 307 2.6 5.2 0.00 0.00 0.00 40 1016.4
20260904151223 101 250 2.6 6.1 0.00 0.00 0.00 42 1016.6
20260904150323 101 272 1.7 6.1 0.00 0.00 0.00 42 1016.6
20260904145423 100 271 2.6 3.5 0.00 0.00 0.00 43 1016.6
20260904144544 100 288 0.9 6.1 0.00 0.00 0.00 44 1016.8
20260904143622 99 355 1.7 3.5 0.00 0.00 0.00 45 1016.9
20260904142722 99 265 1.7 5.2 0.00 0.00 0.00 44 1017.2
20260904141822 98 298 1.7 2.6 0.00 0.00 0.00 47 1017.4
20260904140922 97 287 1.7 6.1 0.00 0.00 0.00 49 1017.5
20260904140022 97 313 1.7 6.1 0.00 0.00 0.00 49 1017.7
20260904135122 96 246 1.7 4.3 0.00 0.00 0.00 51 1017.8
20260904134222 95 232 2.6 4.3 0.00 0.00 0.00 51 1018.0
20260904133322 94 244 2.6 6.1 0.00 0.00 0.00 52 1018.2
20260904132422 94 273 1.7 5.2 0.00 0.00 0.00 52 1018.1
20260904131522 93 79 1.7 4.3 0.00 0.00 0.00 53 1018.1
20260904130643 93 146 1.7 6.1 0.00 0.00 0.00 54 1018.2
20260904125722 92 210 1.7 3.5 0.00 0.00 0.00 55 1018.5
20260904124822 92 238 1.7 3.5 0.00 0.00 0.00 56 1018.7
20260904123922 92 279 1.7 5.2 0.00 0.00 0.00 56 1018.6
20260904123022 92 293 0.9 2.6 0.00 0.00 0.00 56 1018.8
20260904122143 91 187 0.9 2.6 0.00 0.00 0.00 57 1019.0
20260904121222 90 174 0.9 3.5 0.00 0.00 0.00 58 1019.2
20260904120322 89 203 0.9 4.3 0.00 0.00 0.00 61 1019.2
20260904115422 87 178 1.7 2.6 0.00 0.00 0.00 63 1019.4
20260904114522 87 223 1.7 3.5 0.00 0.00 0.00 64 1019.3
20260904113622 86 219 1.7 4.3 0.00 0.00 0.00 66 1019.5
20260904112722 86 227 1.7 4.3 0.00 0.00 0.00 66 1019.7
20260904111822 86 223 1.7 4.3 0.00 0.00 0.00 66 1019.8
20260904110922 86 252 2.6 5.2 0.00 0.00 0.00 66 1019.9
20260904110022 86 238 1.7 4.3 0.00 0.00 0.00 67 1019.9
20260904105122 86 197 1.7 4.3 0.00 0.00 0.00 68 1020.0
20260904104222 85 209 1.7 4.3 0.00 0.00 0.00 69 1020.0
20260904103322 85 209 1.7 4.3 0.00 0.00 0.00 69 1020.1
20260904102443 86 183 1.7 4.3 0.00 0.00 0.00 68 1020.2
20260904101522 85 137 1.7 6.1 0.00 0.00 0.00 70 1020.3
20260904100622 86 338 1.7 3.5 0.00 0.00 0.00 70 1020.3
20260904095722 84 202 0.9 4.3 0.00 0.00 0.00 72 1020.6
20260904094822 83 271 0.9 2.6 0.00 0.00 0.00 74 1020.6
20260904093943 82 220 0.9 2.6 0.00 0.00 0.00 76 1020.6
20260904093021 82 199 1.7 5.2 0.00 0.00 0.00 76 1020.6
20260904092143 81 152 0.9 4.3 0.00 0.00 0.00 76 1020.6
20260904091221 81 179 0.9 3.5 0.00 0.00 0.00 77 1020.5
20260904090321 80 160 1.7 3.5 0.00 0.00 0.00 78 1020.6
20260904085421 80 149 1.7 5.2 0.00 0.00 0.00 80 1020.5
20260904084521 79 199 1.7 5.2 0.00 0.00 0.00 81 1020.4
20260904083642 79 234 1.7 5.2 0.00 0.00 0.00 82 1020.7
20260904082721 78 215 2.6 5.2 0.00 0.00 0.00 82 1020.5
20260904081821 78 216 1.7 5.2 0.00 0.00 0.00 82 1020.5
20260904080921 78 214 2.6 5.2 0.00 0.00 0.00 83 1020.2
20260904080021 78 222 2.6 4.3 0.00 0.00 0.00 83 1020.2
20260904075121 78 187 1.7 4.3 0.00 0.00 0.00 82 1020.0
20260904074221 78 224 1.7 4.3 0.00 0.00 0.00 83 1020.1
20260904073321 78 231 1.7 6.1 0.00 0.00 0.00 83 1020.1
20260904072421 77 217 1.7 6.1 0.00 0.00 0.00 83 1020.0
20260904071542 77 230 1.7 4.3 0.00 0.00 0.00 83 1020.0
20260904070642 77 225 1.7 5.2 0.00 0.00 0.00 83 1020.1
20260904065721 77 237 1.7 4.3 0.00 0.00 0.00 83 1020.0
20260904064821 77 259 1.7 4.3 0.00 0.00 0.00 83 1020.0
20260904063921 77 278 1.7 3.5 0.00 0.00 0.00 83 1019.9
20260904063042 76 250 1.7 4.3 0.00 0.00 0.00 83 1019.9
20260904062121 76 249 2.6 6.1 0.00 0.00 0.00 83 1020.0
20260904061221 76 242 1.7 4.3 0.00 0.00 0.00 83 1019.8
20260904060342 76 241 2.6 3.5 0.00 0.00 0.00 83 1019.7
20260904055421 76 248 2.6 7.8 0.00 0.00 0.00 82 1019.7
20260904054521 76 244 2.6 7.8 0.00 0.00 0.00 82 1019.6
20260904053621 77 231 2.6 7.0 0.00 0.00 0.00 80 1019.7
20260904052721 77 239 2.6 7.8 0.00 0.00 0.00 79 1019.6
20260904051821 78 225 1.7 5.2 0.00 0.00 0.00 77 1019.4
20260904050921 78 258 1.7 4.3 0.00 0.00 0.00 76 1019.3
20260904050021 78 255 1.7 4.3 0.00 0.00 0.00 75 1019.2
20260904045121 79 246 3.5 6.1 0.00 0.00 0.00 74 1019.2
20260904044221 79 238 4.3 8.7 0.00 0.00 0.00 73 1019.4
20260904043321 79 244 3.5 7.8 0.00 0.00 0.00 71 1019.4
20260904042421 80 256 3.5 8.7 0.00 0.00 0.00 70 1019.5
20260904041521 80 269 5.2 10.4 0.00 0.00 0.00 70 1019.3
20260904040621 80 273 4.3 11.3 0.00 0.00 0.00 69 1019.4
20260904035721 80 275 2.6 7.8 0.00 0.00 0.00 68 1019.3
20260904034820 80 271 2.6 7.8 0.00 0.00 0.00 69 1019.3
20260904033920 80 257 2.6 5.2 0.00 0.00 0.00 71 1019.2
20260904033021 79 243 2.6 6.1 0.00 0.00 0.00 72 1019.2
20260904032121 79 226 1.7 6.1 0.00 0.00 0.00 74 1019.2
20260904031221 79 228 2.6 4.3 0.00 0.00 0.00 74 1019.2
20260904030320 78 229 4.3 7.0 0.00 0.00 0.00 75 1019.2
20260904025420 78 235 4.3 9.6 0.00 0.00 0.00 75 1019.3
20260904024520 79 235 4.3 9.6 0.00 0.00 0.00 74 1019.1
20260904023641 80 227 2.6 9.6 0.00 0.00 0.00 72 1018.9
20260904022720 81 219 1.7 6.1 0.00 0.00 0.00 70 1018.8
20260904021820 81 224 2.6 6.1 0.00 0.00 0.00 68 1018.8
20260904020920 82 225 2.6 7.0 0.00 0.00 0.00 67 1018.7
20260904020020 83 226 2.6 5.2 0.00 0.00 0.00 66 1018.6
20260904015141 84 206 1.7 6.1 0.00 0.00 0.00 64 1018.6
20260904014220 84 218 2.6 4.3 0.00 0.00 0.00 64 1018.7
20260904013341 85 231 1.7 4.3 0.00 0.00 0.00 63 1018.6
20260904012441 85 231 1.7 3.5 0.00 0.00 0.00 62 1018.7
20260904011520 86 231 0.9 2.6 0.00 0.00 0.00 61 1018.8
20260904010620 86 231 0.9 2.6 0.00 0.00 0.00 61 1018.7
20260904005720 86 231 0.9 2.6 0.00 0.00 0.00 60 1018.7
20260904004820 87 231 1.7 2.6 0.00 0.00 0.00 59 1018.7
20260904003920 87 239 1.7 3.5 0.00 0.00 0.00 59 1018.7
20260904003020 88 263 0.9 2.6 0.00 0.00 0.00 58 1018.7
20260904002120 88 263 1.7 1.7 0.00 0.00 0.00 58 1018.6
20260904001241 88 263 1.7 3.5 0.00 0.00 0.00 57 1018.7
20260904000320 88 263 0.9 2.6 0.00 0.00 0.00 57 1018.6
20260903235441 88 263 0.9 1.7 0.00 0.00 0.00 56 1018.6
20260903234541 89 263 0.9 2.6 0.00 0.00 0.00 56 1018.6
20260903233620 89 263 1.7 2.6 0.00 0.00 0.00 56 1018.7
20260903232720 89 263 1.7 3.5 0.00 0.00 0.00 55 1018.7
20260903231820 89 263 1.7 2.6 0.00 0.00 0.00 55 1018.6
20260903230920 89 265 1.7 3.5 0.00 0.00 0.00 55 1018.6
20260903230020 90 283 2.6 3.5 0.00 0.00 0.00 55 1018.5
20260903225120 90 275 1.7 5.2 0.00 0.00 0.00 55 1018.6
20260903224241 90 280 1.7 3.5 0.00 0.00 0.00 55 1018.6
20260903223320 90 307 1.7 4.3 0.00 0.00 0.00 55 1018.6
20260903222420 90 310 1.7 4.3 0.00 0.00 0.00 55 1018.6
20260903221520 90 311 1.7 7.0 0.00 0.00 0.00 55 1018.6
20260903220620 90 312 1.7 7.0 0.00 0.00 0.00 55 1018.6
20260903215720 90 299 2.6 7.0 0.00 0.00 0.00 55 1018.6
20260903214820 91 305 2.6 7.8 0.00 0.00 0.00 54 1018.6
20260903213920 91 294 2.6 7.0 0.00 0.00 0.00 53 1018.6
20260903213019 92 272 2.6 6.1 0.00 0.00 0.00 53 1018.5
20260903212141 92 271 3.5 6.1 0.00 0.00 0.00 53 1018.5
20260903211220 92 250 3.5 6.1 0.00 0.00 0.00 52 1018.5
20260903210320 92 240 2.6 7.8 0.00 0.00 0.00 52 1018.4
20260903205419 93 232 3.5 7.0 0.00 0.00 0.00 51 1018.2
20260903204520 94 242 3.5 7.0 0.00 0.00 0.00 49 1018.1
20260903203619 95 262 3.5 7.8 0.00 0.00 0.00 48 1017.8
20260903202719 95 265 3.5 9.6 0.00 0.00 0.00 48 1017.6
20260903201819 95 260 3.5 7.8 0.00 0.00 0.00 48 1017.5
20260903200940 95 249 3.5 7.8 0.00 0.00 0.00 48 1017.4
20260903200019 96 226 3.5 8.7 0.00 0.00 0.00 48 1017.2
20260903195119 97 235 3.5 7.8 0.00 0.00 0.00 47 1017.1
20260903194219 98 239 4.3 7.8 0.00 0.00 0.00 45 1016.9
20260903193340 98 242 3.5 11.3 0.00 0.00 0.00 43 1016.9
20260903192419 100 248 2.6 6.1 0.00 0.00 0.00 40 1016.7
20260903191519 101 257 2.6 6.1 0.00 0.00 0.00 36 1016.5
20260903190619 102 254 3.5 6.1 0.00 0.00 0.00 33 1016.5
20260903185740 103 237 2.6 7.0 0.00 0.00 0.00 29 1016.4
20260903184819 106 278 0.9 7.0 0.00 0.00 0.00 25 1016.3
20260903183920 107 303 0.9 1.7 0.00 0.00 0.00 24 1016.2
20260903183019 108 303 0.9 1.7 0.00 0.00 0.00 23 1016.2
20260903182119 108 303 0.9 2.6 0.00 0.00 0.00 23 1016.2
20260903181219 109 303 0.9 1.7 0.00 0.00 0.00 22 1016.2
20260903180319 109 303 0.9 2.6 0.00 0.00 0.00 21 1016.2
20260903175419 110 301 0.9 2.6 0.00 0.00 0.00 22 1016.2
20260903174519 110 301 1.7 2.6 0.00 0.00 0.00 22 1016.2
20260903173619 109 317 1.7 3.5 0.00 0.00 0.00 21 1016.2
20260903172719 109 334 1.7 3.5 0.00 0.00 0.00 22 1016.3
20260903171819 109 329 3.5 5.2 0.00 0.00 0.00 21 1016.3
20260903170919 109 352 2.6 6.1 0.00 0.00 0.00 21 1016.2
20260903170040 110 340 2.6 5.2 0.00 0.00 0.00 21 1016.3
20260903165119 110 329 1.7 5.2 0.00 0.00 0.00 22 1016.3
20260903164219 110 346 2.6 6.1 0.00 0.00 0.00 21 1016.3
20260903163319 109 326 3.5 7.0 0.00 0.00 0.00 20 1016.3
20260903162419 109 325 3.5 7.0 0.00 0.00 0.00 20 1016.4